TimeEDT,TemperatureF,Dew PointF,Humidity,Sea Level PressureIn,VisibilityMPH,Wind Direction,Wind SpeedMPH,Gust SpeedMPH,PrecipitationIn,Events,Conditions,WindDirDegrees,DateUTC
12:54 AM,71.1,68.0,90,30.05,10.0,Calm,Calm,-,N/A,,Mostly Cloudy,0,2013-08-07 04:54:00
1:54 AM,71.1,68.0,90,30.04,10.0,East,3.5,-,N/A,,Mostly Cloudy,80,2013-08-07 05:54:00
2:54 AM,71.1,68.0,90,30.04,10.0,ESE,5.8,-,N/A,,Overcast,110,2013-08-07 06:54:00
3:54 AM,71.1,68.0,90,30.05,10.0,ESE,4.6,-,N/A,,Overcast,120,2013-08-07 07:54:00
4:54 AM,71.1,68.0,90,30.05,10.0,East,4.6,-,N/A,,Overcast,100,2013-08-07 08:54:00
5:54 AM,71.1,66.9,87,30.05,10.0,East,3.5,-,N/A,,Overcast,100,2013-08-07 09:54:00
6:54 AM,71.1,66.9,87,30.06,10.0,ESE,3.5,-,N/A,,Overcast,110,2013-08-07 10:54:00
7:54 AM,71.1,66.9,87,30.07,10.0,SE,4.6,-,N/A,,Overcast,130,2013-08-07 11:54:00
8:54 AM,71.1,68.0,90,30.08,10.0,ESE,3.5,-,0.00,Rain,Light Rain,120,2013-08-07 12:54:00
9:54 AM,73.9,68.0,82,30.09,10.0,Calm,Calm,-,0.00,,Overcast,0,2013-08-07 13:54:00
10:19 AM,73.4,69.8,88,30.12,10.0,East,3.5,-,N/A,,Overcast,100,2013-08-07 14:19:00
10:54 AM,73.9,69.1,85,30.09,10.0,East,3.5,-,N/A,,Overcast,90,2013-08-07 14:54:00
11:41 AM,75.2,69.8,83,30.12,9.0,SE,5.8,-,N/A,,Overcast,140,2013-08-07 15:41:00
11:54 AM,77.0,70.0,79,30.08,10.0,SE,9.2,-,N/A,,Overcast,140,2013-08-07 15:54:00
12:54 PM,77.0,68.0,74,30.08,10.0,South,8.1,-,N/A,,Overcast,170,2013-08-07 16:54:00
1:54 PM,78.1,69.1,74,30.07,10.0,SSE,6.9,-,N/A,,Overcast,160,2013-08-07 17:54:00
2:36 PM,78.8,68.0,69,30.10,10.0,South,6.9,-,N/A,,Overcast,170,2013-08-07 18:36:00
2:54 PM,77.0,70.0,79,30.06,6.0,South,8.1,-,0.00,Rain,Light Rain,190,2013-08-07 18:54:00
3:54 PM,80.1,69.1,69,30.04,10.0,South,8.1,-,0.01,,Mostly Cloudy,170,2013-08-07 19:54:00
4:54 PM,78.1,70.0,76,30.04,10.0,SSE,9.2,-,0.00,Rain,Light Rain,160,2013-08-07 20:54:00
5:54 PM,75.9,71.1,85,30.04,10.0,SE,6.9,-,0.03,,Overcast,140,2013-08-07 21:54:00
6:54 PM,75.9,71.1,85,30.04,10.0,SSE,9.2,-,0.00,Rain,Light Rain,160,2013-08-07 22:54:00
7:54 PM,75.0,70.0,84,30.04,10.0,SSE,8.1,-,0.00,,Overcast,150,2013-08-07 23:54:00
8:54 PM,75.0,70.0,84,30.05,10.0,SE,5.8,-,N/A,,Overcast,140,2013-08-08 00:54:00
9:54 PM,75.0,70.0,84,30.06,10.0,SSE,5.8,-,N/A,,Overcast,150,2013-08-08 01:54:00
10:54 PM,73.9,70.0,87,30.06,10.0,ESE,5.8,-,N/A,,Mostly Cloudy,120,2013-08-08 02:54:00
11:54 PM,73.0,70.0,90,30.06,10.0,SE,4.6,-,N/A,,Mostly Cloudy,130,2013-08-08 03:54:00